History for DABC

Constantine, DZ

Daily Weekly Monthly
Daily Summary for Monday, March 25, 2019
  Actual: Average: Record:
Temperature
Mean Temperature: 54 °F / 12 °C - :  
Max Temperature: 68 °F / 20 °C 64 °F / 18 °C - ()
Min Temperature: 39 °F / 4 °C 43 °F / 6 °C - ()
Degree Days
Heating Degree Days: 12    
Growing Degree Days 4 (Base 50)    
Moisture
Dew Point 43 °F / 6 °C    
Average Humidity 74    
Maximum Humidity 93    
Minimum Humidity 39    
Precipitation
Precipitation 0.03 in / 0.8 cm 0.07 in / 1.8 cm - ()
Sea Level Pressure
Sea Level Pressure 30.14 in / 1020.60 hPa   
Wind
Wind Speed 3 mph / 4 km/h ()  
Max Wind Speed 12 mph / 18 km/h   
Max Gust Speed -   
Visibility 6.1 miles / 10.0 kilometers   
Events Thunderstorm   

Key: T is trace of precipitation, MM is missing value
Source: Averaged Metar Reports

Graphs

Observations

History Graphs Observations

Obs Go Here...

Features

Weather Apps

WunderRadio

Weather Underground Apps
Check out our wide variety of mobile and setup applications.

Weather Underground Applications

Top of Page

© Copyright 2019
The Weather Company, LLC
Time(CET)TemperatureDew PointHumidity Sea Level Pressure Visibility Wind DirectionWind SpeedGust SpeedPrecipitationEvents Conditions
12:00 AM 46.4 °F / 8.0 °C 42.8 °F / 6.0 °C 87% 30.21 in / 1023 hPa - Calm Calm - N/A   Clear
12:30 AM 46.4 °F / 8.0 °C 42.8 °F / 6.0 °C 87% 30.21 in / 1023 hPa - NW 2.3 mph / 3.7 km/h - N/A   Clear
1:00 AM 44.6 °F / 7.0 °C 41.0 °F / 5.0 °C 87% 30.21 in / 1023 hPa - Variable 1.2 mph / 1.9 km/h - N/A   Clear
1:30 AM 44.6 °F / 7.0 °C 41.0 °F / 5.0 °C 87% 30.21 in / 1023 hPa - Calm Calm - N/A   Clear
2:00 AM 44.6 °F / 7.0 °C 41.0 °F / 5.0 °C 87% 30.18 in / 1022 hPa - Calm Calm - N/A   Clear
2:30 AM 42.8 °F / 6.0 °C 39.2 °F / 4.0 °C 87% 30.18 in / 1022 hPa - Variable 2.3 mph / 3.7 km/h - N/A   Clear
3:00 AM 42.8 °F / 6.0 °C 41.0 °F / 5.0 °C 93% 30.18 in / 1022 hPa - SE 3.5 mph / 5.6 km/h - N/A   Clear
3:30 AM 42.8 °F / 6.0 °C 41.0 °F / 5.0 °C 93% 30.18 in / 1022 hPa - Calm Calm - N/A   Clear
4:00 AM 42 °F / 6 °C 40 °F / 4 °C 88% 30.18 in / 1022 hPa 6 miles / 10 kilometers Calm Calm - -   Clear
4:00 AM 42.8 °F / 6.0 °C 39.2 °F / 4.0 °C 87% 30.18 in / 1022 hPa - Calm Calm - N/A   Clear
4:30 AM 41.0 °F / 5.0 °C 39.2 °F / 4.0 °C 93% 30.18 in / 1022 hPa - Variable 2.3 mph / 3.7 km/h - N/A   Clear
5:00 AM 41.0 °F / 5.0 °C 39.2 °F / 4.0 °C 93% 30.18 in / 1022 hPa - Calm Calm - N/A   Clear
5:30 AM 41.0 °F / 5.0 °C 39.2 °F / 4.0 °C 93% 30.18 in / 1022 hPa - Calm Calm - N/A   Clear
6:00 AM 41.0 °F / 5.0 °C 39.2 °F / 4.0 °C 93% 30.18 in / 1022 hPa - Calm Calm - N/A   Clear
6:30 AM 42.8 °F / 6.0 °C 39.2 °F / 4.0 °C 87% 30.18 in / 1022 hPa - SE 3.5 mph / 5.6 km/h - N/A   Clear
7:00 AM 41 °F / 5 °C 39 °F / 4 °C 92% 30.20 in / 1022 hPa 6 miles / 10 kilometers 2.3 mph / 3.7 km/h - -   Clear
7:00 AM 41.0 °F / 5.0 °C 39.2 °F / 4.0 °C 93% 30.18 in / 1022 hPa - Variable 2.3 mph / 3.7 km/h - N/A   Clear
7:30 AM 42.8 °F / 6.0 °C 41.0 °F / 5.0 °C 93% 30.18 in / 1022 hPa - Variable 2.3 mph / 3.7 km/h - N/A   Clear
8:30 AM 48.2 °F / 9.0 °C 42.8 °F / 6.0 °C 82% 30.18 in / 1022 hPa - ESE 3.5 mph / 5.6 km/h - N/A   Clear
9:30 AM 53.6 °F / 12.0 °C 46.4 °F / 8.0 °C 77% 30.18 in / 1022 hPa - ESE 4.6 mph / 7.4 km/h - N/A   Clear
10:00 AM 57 °F / 14 °C 43 °F / 6 °C 50% 30.18 in / 1022 hPa 6 miles / 10 kilometers 2.3 mph / 3.7 km/h - -   Clear
10:00 AM 57.2 °F / 14.0 °C 42.8 °F / 6.0 °C 59% 30.18 in / 1022 hPa - Variable 2.3 mph / 3.7 km/h - N/A   Clear
10:30 AM 60.8 °F / 16.0 °C 44.6 °F / 7.0 °C 55% 30.15 in / 1021 hPa - Variable 2.3 mph / 3.7 km/h - N/A   Clear
11:00 AM 60.8 °F / 16.0 °C 44.6 °F / 7.0 °C 55% 30.15 in / 1021 hPa - WSW 9.2 mph / 14.8 km/h - N/A   Clear
11:30 AM 62.6 °F / 17.0 °C 46.4 °F / 8.0 °C 55% 30.15 in / 1021 hPa - WSW 9.2 mph / 14.8 km/h - N/A   Clear
12:30 PM 64.4 °F / 18.0 °C 42.8 °F / 6.0 °C 45% 30.12 in / 1020 hPa 6.2 miles / 10.0 kilometers WSW 10.4 mph / 16.7 km/h - N/A   Scattered Clouds
1:00 PM 66 °F / 19 °C 47 °F / 9 °C 40% 30.12 in / 1020 hPa 6 miles / 10 kilometers West 10.4 mph / 16.7 km/h - -   Scattered Clouds
1:00 PM 66.2 °F / 19.0 °C 48.2 °F / 9.0 °C 52% 30.12 in / 1020 hPa 6.2 miles / 10.0 kilometers West 10.4 mph / 16.7 km/h - N/A   Scattered Clouds
1:30 PM 64.4 °F / 18.0 °C 42.8 °F / 6.0 °C 45% 30.12 in / 1020 hPa 6.2 miles / 10.0 kilometers West 9.2 mph / 14.8 km/h - N/A   Scattered Clouds
2:00 PM 64.4 °F / 18.0 °C 44.6 °F / 7.0 °C 49% 30.09 in / 1019 hPa 6.2 miles / 10.0 kilometers NW 5.8 mph / 9.3 km/h - N/A   Scattered Clouds
2:30 PM 66.2 °F / 19.0 °C 46.4 °F / 8.0 °C 49% 30.06 in / 1018 hPa 6.2 miles / 10.0 kilometers North 8.1 mph / 13.0 km/h - N/A   Scattered Clouds
3:00 PM 66.2 °F / 19.0 °C 46.4 °F / 8.0 °C 49% 30.06 in / 1018 hPa 6.2 miles / 10.0 kilometers NNW 6.9 mph / 11.1 km/h - N/A   Scattered Clouds
3:30 PM 66.2 °F / 19.0 °C 46.4 °F / 8.0 °C 49% 30.06 in / 1018 hPa 6.2 miles / 10.0 kilometers NNW 5.8 mph / 9.3 km/h - N/A   Scattered Clouds
4:00 PM 63 °F / 17 °C 44 °F / 7 °C 39% 30.05 in / 1018 hPa 6 miles / 10 kilometers NNW 5.8 mph / 9.3 km/h - -   Mostly Cloudy
4:00 PM 62.6 °F / 17.0 °C 44.6 °F / 7.0 °C 52% 30.04 in / 1017 hPa 6.2 miles / 10.0 kilometers NNW 5.8 mph / 9.3 km/h - N/A   Mostly Cloudy
4:30 PM 60.8 °F / 16.0 °C 46.4 °F / 8.0 °C 59% 30.04 in / 1017 hPa 6.2 miles / 10.0 kilometers NW 11.5 mph / 18.5 km/h - N/A   Mostly Cloudy
5:30 PM 53.6 °F / 12.0 °C 48.2 °F / 9.0 °C 82% 30.06 in / 1018 hPa 6.2 miles / 10.0 kilometers NNW 11.5 mph / 18.5 km/h - N/A Thunderstorm Thunderstorm
6:30 PM 53.6 °F / 12.0 °C 50.0 °F / 10.0 °C 88% 30.06 in / 1018 hPa 6.2 miles / 10.0 kilometers NNW 4.6 mph / 7.4 km/h - N/A   Scattered Clouds
7:00 PM 52 °F / 11 °C 47 °F / 9 °C 79% 30.09 in / 1019 hPa 6 miles / 10 kilometers WSW 3.5 mph / 5.6 km/h - -   Partly Cloudy
7:30 PM 50.0 °F / 10.0 °C 46.4 °F / 8.0 °C 87% 30.06 in / 1018 hPa 6.2 miles / 10.0 kilometers SW 3.5 mph / 5.6 km/h - N/A   Scattered Clouds
8:30 PM 51.8 °F / 11.0 °C 48.2 °F / 9.0 °C 88% 30.06 in / 1018 hPa 6.2 miles / 10.0 kilometers NNW 3.5 mph / 5.6 km/h - N/A   Scattered Clouds
9:00 PM 51.8 °F / 11.0 °C 48.2 °F / 9.0 °C 88% 30.06 in / 1018 hPa 6.2 miles / 10.0 kilometers Calm Calm - N/A   Scattered Clouds